Regional Weather Roundup
Issued by NWS

Home | Current Version | Previous Version | Graphics & Text | Print | Product List | Glossary On
Versions: 1 2 3 4 5 6 7 8 9 10 11 12 13 14 15 16 17 18 19 20 21 22 23 24 25 26 27 28 29 30 31 32 33 34 35 36 37 38 39 40 41 42 43 44 45 46 47 48 49 50
000
ASUS43 KDMX 251401
RWRIA

WEATHER ROUNDUP FOR IOWA
NATIONAL WEATHER SERVICE DES MOINES IA
900 AM CDT TUE APR 25 2017

NOTE: "FAIR" INDICATES FEW OR NO CLOUDS BELOW 12,000 FEET WITH NO
SIGNIFICANT WEATHER AND/OR OBSTRUCTIONS TO VISIBILITY.

* - THESE STATIONS ARE NOT NWS STATIONS...THUS NOT UNDER NWS
QUALITY CONTROL.  THEY ALSO DO NOT REPORT WEATHER SUCH
AS PRECIPITATION OR FOG.

IAZ001>003-012>014-020>022-031>034-043>046-251500-
   NORTHWEST IOWA

CITY           SKY/WX    TMP DP  RH WIND       PRES   REMARKS
CARROLL *      DRIZZLE   50  46  87 N12       29.50R
CHEROKEE *     CLOUDY    44  42  94 N6        29.60R
DENISON *      CLOUDY    48  45  87 N14       29.53S
LE MARS *      CLOUDY    43  39  87 NW13      29.64R
ORANGE CITY *  CLOUDY    43  39  87 N8        29.62R
SHELDON *      CLOUDY    41  37  87 N12       29.59R
SIOUX CITY     LGT RAIN  43  42  97 N13G35    29.56F
SPENCER        CLOUDY    41  40  96 N10       29.59R
STORM LAKE *   CLOUDY    43  41  93 N15       29.55S
$$

IAZ055>058-069>071-079>083-090>094-251500-
   SOUTHWEST IOWA

CITY           SKY/WX    TMP DP  RH WIND       PRES   REMARKS
ATLANTIC *     CLOUDY    55  48  76 NE7       29.45F
AUDUBON *      CLOUDY    52  46  82 N13       29.47F
CLARINDA *     CLOUDY    61  50  67 S7        29.48F
COUNCIL BLFS * CLOUDY    50  46  87 VRB7G20   29.52R
CRESTON *      CLOUDY    57  46  67 S18       29.51R
HARLAN  *      CLOUDY    50  46  87 N12       29.51R
LAMONI         CLOUDY    57  43  59 S12G20    29.51R
RED OAK *      CLOUDY    57  48  72 W5        29.48R
SHENANDOAH *   CLOUDY    59  50  72 N5        29.48S
$$

IAZ047>049-059>061-072>074-084-251500-
   CENTRAL IOWA

CITY           SKY/WX    TMP DP  RH WIND       PRES   REMARKS
AMES           CLOUDY    54  44  69 SE6       29.50F
ANKENY *       CLOUDY    55  43  62 SE6       29.51F
BOONE *        CLOUDY    55  43  62 SE6       29.49F
CHARITON *     CLOUDY    55  43  62 SE13      29.51F
DES MOINES     CLOUDY    59  42  53 E8        29.49F
GRINNELL*      CLOUDY    58  41  52 SE9       29.56F
KNOXVILLE *    CLOUDY    59  41  51 SE9       29.51F
MARSHALLTOWN   CLOUDY    58  41  53 S12       29.52F
NEWTON *       CLOUDY    55  41  58 SE12      29.53F
PELLA *        CLOUDY    58  42  55 SE6       29.54F
PERRY *          N/A     56  44  63 E3        29.49F
$$

IAZ004>006-015-016-023>025-035-036-251500-
   NORTH CENTRAL IOWA

CITY           SKY/WX    TMP DP  RH WIND       PRES   REMARKS
ALGONA *       CLOUDY    46  45  93 N13       29.54S
CLARION *      CLOUDY    59  41  51 S6        29.50F
ESTHERVILLE    CLOUDY    40  40 100 N13       29.55S FOG     WCI  32
FORT DODGE *   CLOUDY    52  41  66 N6        29.52F
MASON CITY     CLOUDY    58  41  53 S9        29.54S
FOREST CITY *    N/A     55  43  62 NW6       29.53F
WEBSTER CITY * CLOUDY    57  43  58 SE8       29.48F
IOWA FALLS *     N/A     58  41  53 SE8       29.54S
$$

IAZ007>011-017>019-026>030-037>042-050>054-066-251500-
   NORTHEAST IOWA

CITY           SKY/WX    TMP DP  RH WIND       PRES   REMARKS
CEDAR RAPIDS   CLOUDY    59  42  53 S9        29.58F
CHARLES CITY * PTSUNNY   59  37  44 S12       29.55S
CLINTON *      SUNNY     63  46  54 S12       29.64S
DECORAH *      PTSUNNY   61  39  44 S6G13     29.57R
DUBUQUE        SUNNY     61  41  47 S14       29.62R
MONTICELLO *   SUNNY     63  41  45 S12       29.60F
OELWEIN *      MOSUNNY   61  41  48 S12G18    29.57F
WATERLOO       CLOUDY    60  39  45 S9        29.55S
$$

IAZ064-065-067-068-078-251500-
   EAST CENTRAL IOWA

CITY           SKY/WX    TMP DP  RH WIND       PRES   REMARKS
DAVENPORT      SUNNY     63  42  46 S16       29.63S
IOWA CITY      CLOUDY    60  44  55 SE5       29.61F
MUSCATINE *    PTSUNNY   64  45  48 S9        29.61F
QUAD CITIES    MOSUNNY   65  43  44 SW10      29.62S
$$

IAZ062-063-075>077-085>089-095>099-251500-
   SOUTHEAST IOWA

CITY           SKY/WX    TMP DP  RH WIND       PRES   REMARKS
BURLINGTON     SUNNY     63  46  54 S12       29.60F
FAIRFIELD *    CLOUDY    64  41  42 S10       29.57F
FORT MADISON * MOSUNNY   64  45  48 S10       29.61F
KEOKUK *       MOSUNNY   64  45  48 S10       29.59F
OSKALOOSA *      N/A     60  41  49 S13       29.56F
OTTUMWA        PTSUNNY   61  41  47 S10       29.56F
WASHINGTON *   PTSUNNY   64  43  45 S10       29.59F
$$

ABBREVIATIONS USED IN REMARKS
   TC - TEMPERATURES IN CELSIUS
  WCI - WIND CHILL INDEX
   HX - HEAT INDEX
  VSB - VISIBILITY
$$




USA.gov is the U.S. government's official web portal to all federal, state and local government web resources and services.